FW4212 Weather Reports


Display with metric or nautical units.
time (UTC)temp
F
wind
direction
speed
MPH
gust
MPH
rain 1hr
in
rain 24hr
in
rain mn
in
humidity
%
barometer
mb
20260902225053 87 86 0.0 0.0 0.00 0.00 0.00 64 1017.7
20260902224554 88 86 0.0 0.0 0.00 0.00 0.00 63 1017.6
20260902224054 88 86 0.0 0.0 0.00 0.00 0.00 61 1017.6
20260902223553 88 86 0.0 0.0 0.00 0.00 0.00 62 1017.7
20260902223053 88 86 0.0 0.0 0.00 0.00 0.00 61 1017.7
20260902222556 88 86 0.0 2.0 0.00 0.00 0.00 60 1017.7
20260902222052 89 86 0.0 2.0 0.00 0.00 0.00 59 1017.7
20260902221556 89 86 0.0 0.0 0.00 0.00 0.00 60 1017.7
20260902221052 89 90 0.0 0.0 0.00 0.00 0.00 59 1017.6
20260902220552 89 90 0.0 0.0 0.00 0.00 0.00 57 1017.7
20260902220052 89 90 0.0 0.0 0.00 0.00 0.00 59 1017.7
20260902215552 89 90 0.0 2.0 0.00 0.00 0.00 58 1017.7
20260902215050 90 90 0.0 2.0 0.00 0.00 0.00 57 1017.7
20260902214550 90 360 0.0 1.0 0.00 0.00 0.00 57 1017.8
20260902214053 90 312 0.0 1.0 0.00 0.00 0.00 56 1017.8
20260902213551 90 312 0.0 2.0 0.00 0.00 0.00 58 1017.9
20260902213052 90 312 0.0 2.0 0.00 0.00 0.00 55 1017.7
20260902212550 90 355 0.0 2.0 0.00 0.00 0.00 55 1017.7
20260902212050 89 332 0.0 2.0 0.00 0.00 0.00 56 1017.8
20260902211650 90 71 0.0 0.0 0.00 0.00 0.00 59 1017.8
20260902211049 90 73 0.0 2.0 0.00 0.00 0.00 56 1017.8
20260902210549 90 73 0.0 3.0 0.00 0.00 0.00 54 1017.8
20260902210049 90 71 0.0 3.0 0.00 0.00 0.00 54 1017.8
20260902205548 90 29 0.0 0.0 0.00 0.00 0.00 55 1017.9
20260902205048 90 38 0.0 1.0 0.00 0.00 0.00 56 1017.8
20260902204548 91 24 0.0 2.0 0.00 0.00 0.00 55 1017.8
20260902204050 91 26 0.0 2.0 0.00 0.00 0.00 57 1017.9
20260902203546 91 11 0.0 2.0 0.00 0.00 0.00 54 1018.0
20260902203048 91 17 0.0 2.0 0.00 0.00 0.00 52 1018.0
20260902202546 91 198 0.0 2.0 0.00 0.00 0.00 54 1018.1
20260902202047 91 59 0.0 4.0 0.00 0.00 0.00 52 1017.9
20260902201545 92 78 1.0 4.0 0.00 0.00 0.00 49 1018.1
20260902201045 92 107 1.0 3.0 0.00 0.00 0.00 57 1018.1
20260902200547 91 84 0.0 2.0 0.00 0.00 0.00 51 1018.1
20260902200045 92 287 0.0 2.0 0.00 0.00 0.00 52 1018.2
20260902195548 92 287 0.0 2.0 0.00 0.00 0.00 51 1018.3
20260902195042 92 287 0.0 2.0 0.00 0.00 0.00 55 1018.3
20260902194541 91 272 0.0 4.0 0.00 0.00 0.00 51 1018.3
20260902194043 91 146 3.0 4.0 0.00 0.00 0.00 48 1018.4
20260902193541 92 106 1.0 4.0 0.00 0.00 0.00 55 1018.5
20260902193053 92 333 0.0 4.0 0.00 0.00 0.00 56 1018.5
20260902192540 91 346 0.0 3.0 0.00 0.00 0.00 51 1018.5
20260902192039 91 22 0.0 3.0 0.00 0.00 0.00 53 1018.6
20260902191538 91 286 0.0 2.0 0.00 0.00 0.00 55 1018.7
20260902191037 91 259 0.0 2.0 0.00 0.00 0.00 52 1018.7
20260902190539 91 5 0.0 4.0 0.00 0.00 0.00 54 1018.8
20260902190037 92 317 2.0 4.0 0.00 0.00 0.00 52 1018.7
20260902185537 91 298 1.0 6.0 0.00 0.00 0.00 50 1018.8
20260902185036 91 200 2.0 6.0 0.00 0.00 0.00 55 1018.9
20260902184534 92 288 1.0 4.0 0.00 0.00 0.00 53 1019.0
20260902184036 92 215 1.0 4.0 0.00 0.00 0.00 55 1019.0
20260902183533 91 258 1.0 3.0 0.00 0.00 0.00 54 1019.1
20260902183032 91 232 0.0 3.0 0.00 0.00 0.00 56 1019.1
20260902182532 90 98 1.0 4.0 0.00 0.00 0.00 54 1019.1
20260902182032 90 94 2.0 4.0 0.00 0.00 0.00 57 1019.2
20260902181532 90 74 0.0 4.0 0.00 0.00 0.00 57 1019.2
20260902181030 91 263 1.0 4.0 0.00 0.00 0.00 53 1019.3
20260902180529 91 267 1.0 4.0 0.00 0.00 0.00 58 1019.3
20260902180029 91 260 0.0 4.0 0.00 0.00 0.00 53 1019.2
20260902175529 91 242 1.0 4.0 0.00 0.00 0.00 58 1019.3
20260902175032 90 252 1.0 4.0 0.00 0.00 0.00 56 1019.3
20260902174527 90 95 1.0 3.0 0.00 0.00 0.00 54 1019.3
20260902174031 90 205 0.0 6.0 0.00 0.00 0.00 56 1019.3
20260902173527 90 262 0.0 6.0 0.00 0.00 0.00 59 1019.4
20260902173027 90 257 0.0 5.0 0.00 0.00 0.00 63 1019.5
20260902172528 90 250 0.0 5.0 0.00 0.00 0.00 64 1019.7
20260902172025 90 73 1.0 6.0 0.00 0.00 0.00 59 1019.6
20260902171525 89 265 0.0 6.0 0.00 0.00 0.00 61 1019.8
20260902171024 90 255 0.0 4.0 0.00 0.00 0.00 56 1019.8
20260902170523 89 286 0.0 5.0 0.00 0.00 0.00 59 1019.8
20260902170023 89 213 1.0 5.0 0.00 0.00 0.00 59 1019.8
20260902165528 89 201 0.0 3.0 0.00 0.00 0.00 58 1020.0
20260902165023 89 232 0.0 4.0 0.00 0.00 0.00 56 1020.1
20260902164528 89 233 1.0 4.0 0.00 0.00 0.00 59 1020.1
20260902164021 88 265 0.0 5.0 0.00 0.00 0.00 61 1020.1
20260902163522 89 202 2.0 5.0 0.00 0.00 0.00 59 1020.2
20260902163026 89 275 1.0 4.0 0.00 0.00 0.00 60 1020.2
20260902162520 88 252 0.0 3.0 0.00 0.00 0.00 64 1020.3
20260902162020 88 153 0.0 3.0 0.00 0.00 0.00 62 1020.3
20260902161520 88 259 1.0 3.0 0.00 0.00 0.00 63 1020.4
20260902161019 88 225 1.0 4.0 0.00 0.00 0.00 61 1020.5
20260902160522 87 215 1.0 5.0 0.00 0.00 0.00 62 1020.4
20260902160027 88 219 1.0 5.0 0.00 0.00 0.00 64 1020.6
20260902155517 87 5 1.0 5.0 0.00 0.00 0.00 66 1020.4
20260902155016 87 236 1.0 5.0 0.00 0.00 0.00 64 1020.5
20260902154521 87 220 0.0 4.0 0.00 0.00 0.00 64 1020.5
20260902154015 87 231 0.0 4.0 0.00 0.00 0.00 64 1020.5
20260902153515 87 219 1.0 4.0 0.00 0.00 0.00 63 1020.6
20260902153014 87 265 1.0 4.0 0.00 0.00 0.00 67 1020.6
20260902152513 86 211 1.0 3.0 0.00 0.00 0.00 65 1020.6
20260902152012 86 271 0.0 3.0 0.00 0.00 0.00 69 1020.6
20260902151512 86 217 1.0 5.0 0.00 0.00 0.00 66 1020.6
20260902151012 86 276 1.0 5.0 0.00 0.00 0.00 68 1020.5
20260902150510 85 257 0.0 3.0 0.00 0.00 0.00 71 1020.6
20260902150111 85 283 1.0 3.0 0.00 0.00 0.00 70 1020.6
20260902145509 85 201 0.0 3.0 0.00 0.00 0.00 71 1020.6
20260902145013 85 235 0.0 4.0 0.00 0.00 0.00 73 1020.6
20260902144506 84 274 1.0 6.0 0.00 0.00 0.00 72 1020.6
20260902144006 84 261 1.0 4.0 0.00 0.00 0.00 74 1020.5
20260902143506 84 257 0.0 4.0 0.00 0.00 0.00 74 1020.6
20260902143005 84 261 0.0 4.0 0.00 0.00 0.00 77 1020.5
20260902142504 84 287 0.0 2.0 0.00 0.00 0.00 77 1020.5
20260902142004 83 263 0.0 4.0 0.00 0.00 0.00 78 1020.5
20260902141505 83 260 1.0 4.0 0.00 0.00 0.00 76 1020.6
20260902141001 82 279 0.0 2.0 0.00 0.00 0.00 78 1020.5
20260902140605 82 279 0.0 3.0 0.00 0.00 0.00 78 1020.5
20260902135559 81 228 2.0 4.0 0.00 0.00 0.00 76 1020.4
20260902135056 81 251 0.0 2.0 0.00 0.00 0.00 78 1020.4
20260902134558 81 271 0.0 3.0 0.00 0.00 0.00 80 1020.5
20260902134054 80 271 0.0 3.0 0.00 0.00 0.00 80 1020.4
20260902133554 80 286 0.0 2.0 0.00 0.00 0.00 81 1020.1
20260902133053 80 281 0.0 2.0 0.00 0.00 0.00 81 1020.1
20260902132551 79 252 0.0 3.0 0.00 0.00 0.00 83 1020.3
20260902132051 79 263 0.0 3.0 0.00 0.00 0.00 83 1020.3
20260902131551 79 297 0.0 3.0 0.00 0.00 0.00 85 1020.3
20260902131052 78 280 1.0 3.0 0.00 0.00 0.00 85 1020.2
20260902130548 77 300 0.0 0.0 0.00 0.00 0.00 87 1020.2
20260902130046 77 300 0.0 2.0 0.00 0.00 0.00 88 1020.3
20260902125545 76 300 0.0 2.0 0.00 0.00 0.00 89 1020.3
20260902125043 76 269 0.0 1.0 0.00 0.00 0.00 89 1020.5
20260902124543 75 269 0.0 0.0 0.00 0.00 0.00 89 1020.5
20260902124046 75 269 0.0 0.0 0.00 0.00 0.00 90 1020.5
20260902123540 75 269 0.0 0.0 0.00 0.00 0.00 91 1020.5
20260902123040 74 257 0.0 0.0 0.00 0.00 0.00 93 1020.4
20260902122542 73 257 0.0 0.0 0.00 0.00 0.00 94 1020.5
20260902122040 73 228 0.0 0.0 0.00 0.00 0.00 94 1020.4
20260902121539 72 228 0.0 0.0 0.00 0.00 0.00 95 1020.4
20260902121037 72 228 0.0 0.0 0.00 0.00 0.00 96 1020.3
20260902120539 71 228 0.0 0.0 0.00 0.00 0.00 97 1020.3
20260902120037 71 228 0.0 0.0 0.00 0.00 0.00 97 1020.3
20260902115536 70 228 0.0 0.0 0.00 0.00 0.00 97 1020.3
20260902115035 70 228 0.0 0.0 0.00 0.00 0.00 97 1020.3
20260902114607 70 228 0.0 0.0 0.00 0.00 0.00 97 1020.1
20260902114035 70 188 0.0 0.0 0.00 0.00 0.00 97 1020.0
20260902113534 69 188 0.0 0.0 0.00 0.00 0.00 97 1020.0
20260902113034 69 188 0.0 0.0 0.00 0.00 0.00 97 1020.0
20260902112535 69 188 0.0 0.0 0.00 0.00 0.00 97 1019.9
20260902112035 69 188 0.0 0.0 0.00 0.00 0.00 97 1020.0
20260902111534 69 188 0.0 0.0 0.00 0.00 0.00 97 1020.0
20260902111033 69 188 0.0 0.0 0.00 0.00 0.00 97 1020.0
20260902110533 69 188 0.0 0.0 0.00 0.00 0.00 97 1019.9
20260902110033 69 188 0.0 0.0 0.00 0.00 0.00 97 1019.8
20260902105534 69 188 0.0 0.0 0.00 0.00 0.00 97 1019.9
20260902105031 69 188 0.0 0.0 0.00 0.00 0.00 97 1019.9
20260902104531 69 188 0.0 0.0 0.00 0.00 0.00 97 1019.8
20260902104029 69 188 0.0 0.0 0.00 0.00 0.00 97 1019.8
20260902103529 70 188 0.0 0.0 0.00 0.00 0.00 97 1019.8
20260902103029 70 188 0.0 0.0 0.00 0.00 0.00 97 1019.9
20260902102529 70 188 0.0 0.0 0.00 0.00 0.00 97 1019.7
20260902102029 70 188 0.0 0.0 0.00 0.00 0.00 97 1019.8
20260902101529 70 188 0.0 0.0 0.00 0.00 0.00 97 1019.8
20260902101028 70 188 0.0 0.0 0.00 0.00 0.00 97 1019.8
20260902100528 70 188 0.0 0.0 0.00 0.00 0.00 97 1019.7
20260902100027 70 188 0.0 0.0 0.00 0.00 0.00 96 1019.6
20260902095527 70 188 0.0 0.0 0.00 0.00 0.00 97 1019.6
20260902095025 70 188 0.0 0.0 0.00 0.00 0.00 97 1019.6
20260902094525 70 188 0.0 0.0 0.00 0.00 0.00 96 1019.5
20260902094026 70 188 0.0 0.0 0.00 0.00 0.00 96 1019.5
20260902093525 70 188 0.0 0.0 0.00 0.00 0.00 97 1019.4
20260902093025 70 188 0.0 0.0 0.00 0.00 0.00 96 1019.4
20260902092525 70 188 0.0 0.0 0.00 0.00 0.00 96 1019.3
20260902092025 70 188 0.0 0.0 0.00 0.00 0.00 96 1019.3
20260902091523 70 188 0.0 0.0 0.00 0.00 0.00 96 1019.3
20260902091022 70 188 0.0 0.0 0.00 0.00 0.00 96 1019.3
20260902090522 70 188 0.0 0.0 0.00 0.00 0.00 96 1019.3
20260902090021 70 188 0.0 0.0 0.00 0.00 0.00 96 1019.2
20260902085521 71 188 0.0 0.0 0.00 0.00 0.00 96 1019.2
20260902085020 71 188 0.0 0.0 0.00 0.00 0.00 96 1019.3
20260902084520 71 188 0.0 0.0 0.00 0.00 0.00 97 1019.2
20260902084023 71 188 0.0 0.0 0.00 0.00 0.00 96 1019.2
20260902083520 71 188 0.0 0.0 0.00 0.00 0.00 96 1019.2
20260902083020 71 188 0.0 0.0 0.00 0.00 0.00 96 1019.3
20260902082519 71 188 0.0 0.0 0.00 0.00 0.00 96 1019.2
20260902082018 71 188 0.0 0.0 0.00 0.00 0.00 96 1019.2
20260902081518 71 188 0.0 0.0 0.00 0.00 0.00 97 1019.2
20260902081018 71 188 0.0 0.0 0.00 0.00 0.00 97 1019.1
20260902080518 71 188 0.0 0.0 0.00 0.00 0.00 97 1019.1
20260902080018 71 188 0.0 0.0 0.00 0.00 0.00 97 1019.0
20260902075517 71 188 0.0 0.0 0.00 0.00 0.00 97 1019.1
20260902075018 71 188 0.0 0.0 0.00 0.00 0.00 96 1019.0
20260902074523 72 188 0.0 0.0 0.00 0.00 0.00 96 1019.1
20260902074015 72 188 0.0 0.0 0.00 0.00 0.00 96 1019.0
20260902073516 72 188 0.0 0.0 0.00 0.00 0.00 96 1019.0
20260902073016 72 188 0.0 0.0 0.00 0.00 0.00 96 1019.0
20260902072513 72 188 0.0 0.0 0.00 0.00 0.00 96 1019.0
20260902072013 72 188 0.0 0.0 0.00 0.00 0.00 96 1019.1
20260902071515 72 188 0.0 0.0 0.00 0.00 0.00 96 1019.1
20260902071015 72 188 0.0 0.0 0.00 0.00 0.00 96 1019.2
20260902070515 72 188 0.0 0.0 0.00 0.00 0.00 96 1019.2
20260902070011 72 188 0.0 0.0 0.00 0.00 0.00 96 1019.1
20260902065512 72 188 0.0 0.0 0.00 0.00 0.00 96 1019.1
20260902065011 72 188 0.0 0.0 0.00 0.00 0.00 96 1019.1
20260902064511 73 188 0.0 0.0 0.00 0.00 0.00 96 1019.1
20260902064010 73 88 0.0 0.0 0.00 0.00 0.00 96 1019.0
20260902063512 73 88 0.0 0.0 0.00 0.00 0.00 96 1019.0
20260902063010 73 88 0.0 0.0 0.00 0.00 0.00 96 1019.1
20260902062510 73 88 0.0 0.0 0.00 0.00 0.00 96 1019.1
20260902062012 73 88 0.0 0.0 0.00 0.00 0.00 96 1019.1
20260902061518 73 88 0.0 0.0 0.00 0.00 0.00 96 1019.1
20260902061008 73 88 0.0 0.0 0.00 0.00 0.00 96 1019.0
20260902060507 72 88 0.0 0.0 0.00 0.00 0.00 96 1019.1
20260902060010 72 88 0.0 0.0 0.00 0.00 0.00 96 1019.1
20260902055508 73 88 0.0 0.0 0.00 0.00 0.00 96 1019.1
20260902055006 73 88 0.0 0.0 0.00 0.00 0.00 96 1019.1
20260902054506 73 88 0.0 0.0 0.00 0.00 0.00 96 1019.0
20260902054005 73 88 0.0 0.0 0.00 0.00 0.00 96 1019.0
20260902053505 73 88 0.0 0.0 0.00 0.00 0.00 96 1019.1
20260902053005 73 88 0.0 0.0 0.00 0.00 0.00 96 1019.1
20260902052505 73 88 0.0 0.0 0.00 0.00 0.00 95 1019.1
20260902052008 73 88 0.0 0.0 0.00 0.00 0.00 95 1019.0
20260902051502 73 88 0.0 0.0 0.00 0.00 0.00 95 1019.1
20260902051003 73 88 0.0 0.0 0.00 0.00 0.00 95 1019.0
20260902050501 74 88 0.0 0.0 0.00 0.00 0.00 95 1019.0
20260902050002 74 88 0.0 0.0 0.00 0.00 0.00 95 1019.1
20260902045502 74 88 0.0 0.0 0.00 0.00 0.00 95 1019.0
20260902045100 74 88 0.0 0.0 0.00 0.00 0.00 95 1019.0
20260902044600 74 88 0.0 0.0 0.00 0.00 0.00 95 1019.0
20260902044100 74 88 0.0 0.0 0.00 0.00 0.00 95 1019.1
20260902043559 74 88 0.0 0.0 0.00 0.00 0.00 95 1019.0
20260902043059 74 88 0.0 0.0 0.00 0.00 0.00 95 1019.0
20260902042559 74 88 0.0 0.0 0.00 0.00 0.00 95 1018.9
20260902042059 74 88 0.0 0.0 0.00 0.00 0.00 95 1019.0
20260902041659 74 88 0.0 0.0 0.00 0.00 0.00 95 1019.0
20260902041057 74 88 0.0 0.0 0.00 0.00 0.00 95 1019.0
20260902040557 74 88 0.0 0.0 0.00 0.00 0.00 95 1019.0
20260902040056 74 88 0.0 0.0 0.00 0.00 0.00 95 1018.9
20260902035556 74 88 0.0 0.0 0.00 0.00 0.00 95 1019.0
20260902035055 74 88 0.0 0.0 0.00 0.00 0.00 95 1018.9
20260902034555 75 88 0.0 0.0 0.00 0.00 0.00 95 1018.9
20260902034054 75 88 0.0 0.0 0.00 0.00 0.00 95 1018.9
20260902033554 75 88 0.0 0.0 0.00 0.00 0.00 95 1018.9
20260902033055 75 88 0.0 0.0 0.00 0.00 0.00 94 1018.9
20260902032556 75 88 0.0 0.0 0.00 0.00 0.00 94 1018.9
20260902032055 75 88 0.0 0.0 0.00 0.00 0.00 94 1018.9
20260902031611 75 88 0.0 0.0 0.00 0.00 0.00 94 1019.0
20260902031055 75 88 0.0 0.0 0.00 0.00 0.00 94 1019.1
20260902030553 75 88 0.0 0.0 0.00 0.00 0.00 94 1019.0
20260902030057 75 88 0.0 0.0 0.00 0.00 0.00 94 1019.0
20260902025553 75 88 0.0 0.0 0.00 0.00 0.00 93 1019.0
20260902025053 75 88 0.0 0.0 0.00 0.00 0.00 93 1019.0
20260902024605 76 88 0.0 0.0 0.00 0.00 0.00 93 1019.1
20260902024052 76 88 0.0 0.0 0.00 0.00 0.00 93 1019.1
20260902023552 76 88 0.0 0.0 0.00 0.00 0.00 92 1019.0
20260902023101 76 88 0.0 0.0 0.00 0.00 0.00 92 1018.8
20260902022551 76 88 0.0 0.0 0.00 0.00 0.00 92 1018.8
20260902022052 76 88 0.0 0.0 0.00 0.00 0.00 92 1018.8
20260902021558 76 88 0.0 0.0 0.00 0.00 0.00 92 1018.8
20260902021052 76 88 0.0 0.0 0.00 0.00 0.00 92 1018.8
20260902020552 76 88 0.0 0.0 0.00 0.00 0.00 92 1018.7
20260902020052 77 88 0.0 0.0 0.00 0.00 0.00 92 1018.6
20260902015552 77 88 0.0 0.0 0.00 0.00 0.00 92 1018.5
20260902015053 77 88 0.0 0.0 0.00 0.00 0.00 92 1018.5
20260902014551 77 88 0.0 0.0 0.00 0.00 0.00 92 1018.5
20260902014050 77 88 0.0 0.0 0.00 0.00 0.00 92 1018.5
20260902013554 77 88 0.0 0.0 0.00 0.00 0.00 92 1018.5
20260902013051 78 88 0.0 0.0 0.00 0.00 0.00 91 1018.3
20260902012550 78 88 0.0 0.0 0.00 0.00 0.00 91 1018.4
20260902012051 78 88 0.0 0.0 0.00 0.00 0.00 91 1018.3
20260902011550 78 88 0.0 0.0 0.00 0.00 0.00 90 1018.3
20260902011050 78 88 0.0 0.0 0.00 0.00 0.00 90 1018.3
20260902010550 78 88 0.0 0.0 0.00 0.00 0.00 89 1018.4
20260902010050 79 88 0.0 0.0 0.00 0.00 0.00 89 1018.3
20260902005550 79 88 0.0 0.0 0.00 0.00 0.00 89 1018.4
20260902005049 79 88 0.0 0.0 0.00 0.00 0.00 88 1018.3
20260902004551 79 88 0.0 0.0 0.00 0.00 0.00 87 1018.3
20260902004049 79 88 0.0 0.0 0.00 0.00 0.00 86 1018.2
20260902003548 80 88 0.0 0.0 0.00 0.00 0.00 85 1018.2
20260902003049 80 88 0.0 0.0 0.00 0.00 0.00 83 1018.1
20260902002551 80 88 0.0 0.0 0.00 0.00 0.00 82 1018.2
20260902002048 81 88 0.0 0.0 0.00 0.00 0.00 82 1018.1
20260902001601 81 88 0.0 0.0 0.00 0.00 0.00 82 1018.0
20260902001049 81 88 0.0 0.0 0.00 0.00 0.00 80 1018.2
20260902000551 81 88 0.0 0.0 0.00 0.00 0.00 80 1018.1
20260902000048 81 88 0.0 0.0 0.00 0.00 0.00 80 1018.2
20260901235548 82 88 0.0 0.0 0.00 0.00 0.00 79 1018.0
20260901235046 82 88 0.0 0.0 0.00 0.00 0.00 79 1018.1
20260901234556 82 88 0.0 0.0 0.00 0.00 0.00 79 1018.1
20260901234047 82 88 0.0 0.0 0.00 0.00 0.00 79 1018.1
20260901233547 83 88 0.0 0.0 0.00 0.00 0.00 78 1018.0
20260901233056 83 88 0.0 0.0 0.00 0.00 0.00 76 1018.0
20260901232551 84 88 0.0 0.0 0.00 0.00 0.00 76 1018.1
20260901232047 84 88 0.0 0.0 0.00 0.00 0.00 75 1018.1
20260901231546 84 88 0.0 0.0 0.00 0.00 0.00 71 1018.1
20260901231046 85 88 0.0 0.0 0.00 0.00 0.00 71 1018.1
20260901230546 85 88 0.0 0.0 0.00 0.00 0.00 69 1018.2
20260901230046 86 88 0.0 0.0 0.00 0.00 0.00 66 1018.3
20260901225549 86 88 0.0 0.0 0.00 0.00 0.00 68 1018.2